Regional Weather Roundup
Issued by NWS

Home | Current Version | Previous Version | Text Only | Print | Product List | Glossary On
Versions: 1 2 3 4 5 6 7 8 9 10 11 12 13 14 15 16 17 18 19 20 21 22 23 24 25 26 27 28
000
ASUS46 KPQR 042110
RWROR

OREGON REGIONAL WEATHER ROUNDUP
NATIONAL WEATHER SERVICE PORTLAND OR
100 PM PST SUN DEC 04 2016

NOTE: "FAIR" INDICATES FEW OR NO CLOUDS BELOW 12,000 FEET WITH
NO SIGNIFICANT WEATHER AND/OR OBSTRUCTIONS TO VISIBILITY.

ORZ001>013-042200-
NORTHWEST OREGON


CITY           SKY/WX    TMP DP  RH WIND       PRES   REMARKS
ASTORIA        PTSUNNY   49  30  48 NW17G23   30.12F
NEWPORT        CLOUDY    50  36  57 NW13      30.19S
PORTLAND       PTSUNNY   46  34  62 NW9       30.13F
VANCOUVER WA   PTSUNNY   46  35  65 W3        30.13S
SCAPPOOSE      PTSUNNY   46  36  68 CALM      30.11F
HILLSBORO      PTSUNNY   45  37  73 W9        30.12F
AURORA         CLOUDY    46  41  82 CALM      30.15R
MCMINNVILLE    CLOUDY    47  37  68 W6        30.14S
SALEM          CLOUDY    46  38  73 W5        30.14R
CORVALLIS        N/A     46  39  76 CALM      30.16R
EUGENE         LGT RAIN  45  41  86 W7        30.15S
$$

ORZ021-028-042200-
SOUTHWEST OREGON


CITY           SKY/WX    TMP DP  RH WIND       PRES   REMARKS
NORTH BEND     CLOUDY    46  45  93 N9        30.19S
BROOKINGS      RAIN      49  48  97 SE5       30.15F VSB 1
ROSEBURG       LGT RAIN  46  43  89 N3        30.14F FOG
SEXTON SUMMIT  LGT RAIN  38  38 100 CALM      30.04F VSB 1/4
MEDFORD        CLOUDY    45  40  82 N3        30.07F
$$

ORZ014>016-041-042200-
COLUMBIA GORGE


CITY           SKY/WX    TMP DP  RH WIND       PRES   REMARKS
TROUTDALE      PTSUNNY   47  37  68 VRB6      30.13S
THE DALLES     MOSUNNY   47  33  58 W16G22    30.04R
$$

ORZ029>031-041-044-049-050-061>064-502-503-505>511-042200-
EASTERN OREGON


CITY           SKY/WX    TMP DP  RH WIND       PRES   REMARKS
REDMOND        CLOUDY    37  31  78 W16       29.97F WCI  28
BEND           LGT SNOW  34  32  93 NW8       29.97S WCI  27
PRINEVILLE     CLOUDY    34  34 100 W8G15     29.97S WCI  27
KLAMATH FALLS  CLOUDY    44  37  76 SW9       30.01F
LAKEVIEW       CLOUDY    43  32  65 SW9G16    29.99F
HERMISTON      MOSUNNY   47  34  60 W20G26    29.93R
PENDLETON      CLOUDY    41  32  70 W23G35    29.89F
JOHN DAY       RAIN      37  36  96 W14G20    29.88S WCI  28
MEACHAM        LGT SNOW  31  28  89 W8        29.86R FOG     WCI  23
LA GRANDE      CLOUDY    36  27  69 NW12G21   29.87R WCI  27
BAKER CITY     LGT SNOW  32  31  96 CALM      29.84F FOG
BURNS          LGT RAIN  43  37  79 W24G32    29.85F
ROME             N/A     52  30  43 SW30G40   29.86F
ONTARIO        CLOUDY    44  33  65 CALM      29.84F
$$




USA.gov is the U.S. government's official web portal to all federal, state and local government web resources and services.